Flag for Canada Weather past 2 weeks in Inuvik, Northwest Territories, Canada

Now
23 °F

Low clouds.


Feels Like: 17 °F
Forecast: 23 / 33 °F
Wind: 5 mph from North

Location: Inuvik


UV Index: 0 (Low)

Visibility: 15 mi


Pressure: 29.75 "Hg

Humidity: 93%

Dew point: 21 °F

Location of InuvikLocation

Historic Weather in Inuvik

°F

Inuvik temperature yesterday

Maximum temperature yesterday: 25 °F (at 12:00 AM)
Minimum temperature yesterday: 18 °F (at 6:00 AM)
Average temperature yesterday: 21 °F

Past Weeks' High & Low Weather Summary

 TemperatureHumidityPressure
High39 °F (Apr 14, 3:00 PM)93% (Apr 17, 2:48 AM)30.47 "Hg (Apr 17, 2:48 AM)
Low-20 °F (Apr 10, 5:00 AM)33% (Apr 14, 7:00 PM)29.60 "Hg (Apr 8, 9:00 AM)
Average10 °F63%29.95 "Hg
* Reported Apr 3 11:00 AM — Apr 18 11:00 AM, Inuvik, Weather by CustomWeather, © 2014

Note: Actual official high and low records may vary slightly from our data, if they occured in-between our weather recording intervals... More about our weather records

Advertising

Historic Weather Conditions — Data for Previous 24 hours

 ConditionsComfort  
Time TempWeatherWind HumidityBarometerVisibility
11:00 AM
Apr 18
21 °FIce fog.8 mph93%29.74 "Hg6 mi
10:00 AM21 °FIce fog.7 mph93%29.73 "Hg6 mi
9:00 AM21 °FIce fog.5 mph93%29.72 "Hg1 mi
8:00 AM21 °FIce fog.5 mph93%29.72 "Hg1 mi
7:00 AM21 °FIce fog.5 mph93%29.72 "Hg2 mi
6:00 AM21 °FIce fog.5 mph93%29.72 "Hg1 mi
5:49 AM21 °FIce fog.5 mph93%29.72 "Hg1 mi
5:00 AM21 °FLow clouds.3 mph93%29.72 "Hg15 mi
4:00 AM21 °FLow clouds.6 mph86%29.72 "Hg15 mi
3:00 AM21 °FLow clouds.6 mph86%29.72 "Hg15 mi
2:00 AM19 °FLow clouds.9 mph93%29.71 "Hg15 mi
1:00 AM21 °FLow clouds.8 mph86%29.71 "Hg15 mi
12:00 AM21 °FLow clouds.5 mph86%29.72 "Hg15 mi
11:00 PM
Apr 17
23 °FLow clouds.7 mph86%29.71 "Hg15 mi
10:00 PM23 °FOvercast.7 mph86%29.71 "Hg15 mi
9:00 PM23 °FOvercast.7 mph86%29.71 "Hg15 mi
8:00 PM25 °FOvercast.9 mph80%29.72 "Hg15 mi
7:00 PM25 °FOvercast.8 mph80%29.72 "Hg15 mi
6:00 PM25 °FOvercast.9 mph86%29.73 "Hg15 mi
5:00 PM25 °FOvercast.8 mph86%29.73 "Hg15 mi
4:00 PM25 °FOvercast.5 mph80%29.74 "Hg15 mi
3:00 PM25 °FPartly sunny.7 mph80%29.75 "Hg15 mi
2:00 PM23 °FPartly sunny.8 mph86%29.75 "Hg15 mi
1:00 PM23 °FBroken clouds.7 mph80%29.75 "Hg15 mi
12:00 PM21 °FScattered clouds.6 mph80%29.76 "Hg15 mi
Weather by CustomWeather, © 2014

See weather overview